ESANS EDDG-ZZZZ

Flight info

Callsign ESANS
Flight time N/A
Altitude
Route
Aircraft

Departure

Time 2026-04-16 10:42
Airport Münster Osnabrück Airport (EDDG)

Arrival

Time N/A
Airport ZZZZ
Time Latitude Longitude Altitude Speed Heading
2026-04-16 10:38 52.13123 7.68233 162 ft 0 kts 270°
2026-04-16 10:38 52.13123 7.68232 162 ft 1 kts 266°
2026-04-16 10:39 52.13176 7.68218 162 ft 11 kts 64°
2026-04-16 10:39 52.13207 7.68344 162 ft 10 kts
2026-04-16 10:39 52.13274 7.68407 162 ft 17 kts 72°
2026-04-16 10:39 52.13315 7.68600 162 ft 19 kts 71°
2026-04-16 10:40 52.13358 7.68807 162 ft 20 kts 71°
2026-04-16 10:40 52.13409 7.69046 162 ft 24 kts 70°
2026-04-16 10:40 52.13465 7.69310 162 ft 25 kts 71°
2026-04-16 10:40 52.13521 7.69577 162 ft 25 kts 71°
2026-04-16 10:41 52.13577 7.69840 162 ft 25 kts 71°
2026-04-16 10:41 52.13666 7.70033 162 ft 21 kts 10°
2026-04-16 10:41 52.13769 7.69924 162 ft 19 kts 260°
2026-04-16 10:41 52.13701 7.69604 162 ft 51 kts 250°
2026-04-16 10:42 52.13580 7.68928 309 ft 64 kts 251°
2026-04-16 10:42 52.13443 7.68221 494 ft 67 kts 247°
2026-04-16 10:42 52.13285 7.67505 762 ft 68 kts 247°
2026-04-16 10:42 52.13130 7.66789 1093 ft 69 kts 243°
2026-04-16 10:43 52.12785 7.66321 1498 ft 68 kts 195°
2026-04-16 10:43 52.12236 7.66380 1751 ft 93 kts 167°
2026-04-16 10:43 52.11628 7.66941 1804 ft 103 kts 149°
2026-04-16 10:43 52.11040 7.67664 1709 ft 107 kts 147°
2026-04-16 10:44 52.10606 7.68577 1783 ft 102 kts 116°
2026-04-16 10:44 52.10629 7.69723 1950 ft 102 kts 73°
2026-04-16 10:44 52.10884 7.70777 2045 ft 105 kts 62°
2026-04-16 10:44 52.11289 7.71792 2166 ft 111 kts 58°
2026-04-16 10:45 52.11804 7.72648 2106 ft 100 kts 31°
2026-04-16 10:45 52.12458 7.72978 1816 ft 102 kts
2026-04-16 10:45 52.13152 7.72777 1427 ft 102 kts 333°
2026-04-16 10:45 52.13698 7.72046 989 ft 103 kts 300°
2026-04-16 10:46 52.13905 7.70978 540 ft 96 kts 266°
2026-04-16 10:46 52.13789 7.70012 275 ft 84 kts 249°
2026-04-16 10:46 52.13594 7.69094 164 ft 85 kts 248°
2026-04-16 10:46 52.13408 7.68218 315 ft 79 kts 247°
2026-04-16 10:47 52.13230 7.67375 514 ft 77 kts 248°
2026-04-16 10:47 52.12978 7.66641 816 ft 74 kts 220°
2026-04-16 10:47 52.12495 7.66374 1144 ft 74 kts 180°
2026-04-16 10:47 52.11994 7.66644 1455 ft 80 kts 161°
2026-04-16 10:48 52.11473 7.66959 1709 ft 82 kts 160°
2026-04-16 10:48 52.11171 7.67672 1979 ft 83 kts 102°
2026-04-16 10:48 52.11292 7.68659 2096 ft 96 kts 77°
2026-04-16 10:48 52.11500 7.69730 2202 ft 106 kts 74°
2026-04-16 10:49 52.11781 7.70929 2136 ft 119 kts 72°
2026-04-16 10:49 52.12081 7.72210 2144 ft 116 kts 69°
2026-04-16 10:49 52.12654 7.73085 1953 ft 121 kts 22°
2026-04-16 10:49 52.13446 7.73015 1810 ft 120 kts 340°
2026-04-16 10:50 52.14004 7.72222 1026 ft 114 kts 277°
2026-04-16 10:50 52.14007 7.71037 615 ft 99 kts 255°
2026-04-16 10:50 52.13803 7.70046 307 ft 88 kts 246°
2026-04-16 10:50 52.13611 7.69177 166 ft 81 kts 248°
2026-04-16 10:51 52.13441 7.68360 395 ft 72 kts 248°
2026-04-16 10:51 52.13284 7.67570 623 ft 72 kts 249°
2026-04-16 10:51 52.13068 7.66892 935 ft 69 kts 218°
2026-04-16 10:51 52.12600 7.66748 1191 ft 74 kts 172°
2026-04-16 10:52 52.12097 7.67035 1449 ft 78 kts 149°
2026-04-16 10:52 52.11791 7.67865 1566 ft 98 kts 107°
2026-04-16 10:52 52.11848 7.69039 1580 ft 108 kts 72°
2026-04-16 10:52 52.12219 7.70120 1588 ft 118 kts 63°
2026-04-16 10:53 52.12615 7.71215 1456 ft 104 kts 64°
2026-04-16 10:53 52.12919 7.72191 1267 ft 96 kts 73°
2026-04-16 10:53 52.13306 7.72869 1288 ft 80 kts 26°
2026-04-16 10:53 52.13837 7.72873 1216 ft 78 kts 326°
2026-04-16 10:54 52.14151 7.72113 1175 ft 56 kts 264°
2026-04-16 10:54 52.14109 7.71447 825 ft 78 kts 248°
2026-04-16 10:54 52.13985 7.70818 637 ft 45 kts 242°
2026-04-16 10:54 52.13848 7.70278 318 ft 72 kts 245°
2026-04-16 10:55 52.13660 7.69407 176 ft 79 kts 248°
2026-04-16 10:55 52.13498 7.68630 281 ft 70 kts 248°
2026-04-16 10:55 52.13330 7.67856 460 ft 75 kts 247°
2026-04-16 10:55 52.13161 7.67092 778 ft 69 kts 235°
2026-04-16 10:56 52.12749 7.66782 1087 ft 74 kts 177°
2026-04-16 10:56 52.12246 7.67092 1313 ft 81 kts 157°
2026-04-16 10:56 52.11882 7.67783 1524 ft 93 kts 109°
2026-04-16 10:56 52.11972 7.68827 1587 ft 100 kts 71°
2026-04-16 10:57 52.12273 7.69882 1673 ft 105 kts 69°
2026-04-16 10:57 52.12604 7.70933 1767 ft 102 kts 66°
2026-04-16 10:57 52.12993 7.71841 1551 ft 99 kts 37°
2026-04-16 10:57 52.13652 7.71986 1367 ft 99 kts 339°
2026-04-16 10:58 52.14110 7.71215 1018 ft 91 kts 271°
2026-04-16 10:58 52.13889 7.70385 537 ft 77 kts 243°
2026-04-16 10:58 52.13685 7.69523 203 ft 83 kts 248°
2026-04-16 10:58 52.13519 7.68736 242 ft 70 kts 247°
2026-04-16 10:59 52.13360 7.67974 415 ft 73 kts 249°
2026-04-16 10:59 52.13199 7.67172 632 ft 75 kts 249°
2026-04-16 10:59 52.12866 7.66620 962 ft 73 kts 196°
2026-04-16 10:59 52.12377 7.66852 1261 ft 79 kts 140°
2026-04-16 11:00 52.12203 7.67729 1472 ft 94 kts 85°
2026-04-16 11:00 52.12461 7.68737 1563 ft 105 kts 70°
2026-04-16 11:00 52.12777 7.69816 1757 ft 104 kts 69°
2026-04-16 11:00 52.13075 7.70853 1866 ft 99 kts 74°
2026-04-16 11:01 52.13324 7.71873 2098 ft 97 kts 73°
2026-04-16 11:01 52.13519 7.72946 2248 ft 106 kts 82°
2026-04-16 11:01 52.13663 7.74176 2371 ft 110 kts 89°
2026-04-16 11:01 52.13849 7.75314 2556 ft 108 kts 60°
2026-04-16 11:02 52.14539 7.75356 2333 ft 123 kts 314°
2026-04-16 11:02 52.14669 7.74104 1409 ft 129 kts 251°
2026-04-16 11:02 52.14425 7.72898 967 ft 100 kts 245°
2026-04-16 11:02 52.14199 7.71922 630 ft 86 kts 247°
2026-04-16 11:03 52.14012 7.71057 384 ft 76 kts 249°
2026-04-16 11:03 52.13836 7.70244 296 ft 82 kts 247°
2026-04-16 11:03 52.13522 7.68711 243 ft 63 kts 250°
2026-04-16 11:04 52.13387 7.67996 419 ft 68 kts 247°
2026-04-16 11:04 52.13223 7.67268 646 ft 70 kts 248°
2026-04-16 11:04 52.12912 7.66769 963 ft 68 kts 200°
2026-04-16 11:04 52.12421 7.66841 1199 ft 78 kts 159°
2026-04-16 11:05 52.11928 7.67231 1459 ft 80 kts 152°
2026-04-16 11:05 52.11619 7.68065 1512 ft 100 kts 98°
2026-04-16 11:05 52.11808 7.69174 1481 ft 108 kts 64°
2026-04-16 11:05 52.12194 7.70192 1560 ft 106 kts 62°
2026-04-16 11:06 52.12569 7.71200 1630 ft 105 kts 63°
2026-04-16 11:06 52.12940 7.72193 1741 ft 99 kts 54°
2026-04-16 11:06 52.13524 7.72621 1612 ft 95 kts 359°
2026-04-16 11:06 52.14052 7.72052 1299 ft 97 kts 288°
2026-04-16 11:07 52.14001 7.70950 518 ft 104 kts 248°
2026-04-16 11:07 52.13791 7.69998 244 ft 80 kts 247°
2026-04-16 11:07 52.13620 7.69219 166 ft 73 kts 248°
2026-04-16 11:07 52.13470 7.68456 272 ft 65 kts 249°
2026-04-16 11:08 52.13297 7.67892 412 ft 47 kts 224°
2026-04-16 11:08 52.13103 7.67704 491 ft 52 kts 203°
2026-04-16 11:08 52.12758 7.67538 698 ft 52 kts 199°
2026-04-16 11:08 52.12388 7.67382 910 ft 61 kts 198°
2026-04-16 11:09 52.11959 7.67127 1116 ft 69 kts 203°
2026-04-16 11:09 52.11501 7.66789 1365 ft 80 kts 205°
2026-04-16 11:09 52.10830 7.66213 1744 ft 83 kts 208°
2026-04-16 11:09 52.10489 7.65901 1848 ft 84 kts 208°
2026-04-16 11:10 52.09957 7.65427 1908 ft 88 kts 206°
2026-04-16 11:10 52.09416 7.64956 2148 ft 90 kts 206°
2026-04-16 11:10 52.08823 7.64465 2123 ft 100 kts 207°
2026-04-16 11:10 52.08198 7.63903 2165 ft 103 kts 209°
2026-04-16 11:11 52.07608 7.63337 2165 ft 101 kts 208°
2026-04-16 11:11 52.06952 7.62773 1888 ft 113 kts 206°
2026-04-16 11:11 52.06245 7.62228 1692 ft 110 kts 204°
2026-04-16 11:11 52.05571 7.61743 1177 ft 104 kts 205°
2026-04-16 11:12 52.04948 7.61299 908 ft 87 kts 209°
2026-04-16 11:12 52.04353 7.60921 827 ft 97 kts 201°
2026-04-16 11:12 52.03777 7.60609 735 ft 82 kts 200°
2026-04-16 11:12 52.03222 7.60285 805 ft 89 kts 203°
2026-04-16 11:13 52.02648 7.59880 906 ft 91 kts 207°
2026-04-16 11:13 52.02093 7.59323 929 ft 96 kts 217°
2026-04-16 11:13 52.01567 7.58642 904 ft 98 kts 219°
2026-04-16 11:13 52.01020 7.57978 910 ft 99 kts 215°
2026-04-16 11:14 52.00423 7.57422 879 ft 100 kts 204°
2026-04-16 11:14 51.99805 7.56922 887 ft 100 kts 213°
2026-04-16 11:14 51.99251 7.56294 881 ft 99 kts 215°
2026-04-16 11:14 51.98672 7.55699 933 ft 98 kts 211°
2026-04-16 11:15 51.98097 7.55250 872 ft 92 kts 204°
2026-04-16 11:15 51.97476 7.54928 889 ft 94 kts 197°
2026-04-16 11:15 51.96840 7.54690 917 ft 94 kts 193°
2026-04-16 11:15 51.96198 7.54645 987 ft 93 kts 170°
2026-04-16 11:16 51.95562 7.54924 962 ft 96 kts 180°
2026-04-16 11:16 51.94912 7.54962 975 ft 97 kts 180°
2026-04-16 11:16 51.94234 7.55064 920 ft 98 kts 177°
2026-04-16 11:16 51.93599 7.55250 898 ft 97 kts 173°
2026-04-16 11:17 51.92942 7.55434 903 ft 96 kts 172°
2026-04-16 11:17 51.92291 7.55696 901 ft 97 kts 169°
2026-04-16 11:17 51.91620 7.56007 855 ft 102 kts 166°
2026-04-16 11:17 51.90960 7.56363 877 ft 100 kts 165°
2026-04-16 11:18 51.90316 7.56723 828 ft 102 kts 164°
2026-04-16 11:18 51.89673 7.57145 817 ft 97 kts 167°
2026-04-16 11:18 51.89042 7.57401 883 ft 90 kts 173°
2026-04-16 11:18 51.88417 7.57548 926 ft 92 kts 181°
2026-04-16 11:19 51.87764 7.57602 953 ft 97 kts 179°
2026-04-16 11:19 51.87104 7.57628 979 ft 93 kts 182°
2026-04-16 11:19 51.86450 7.57636 988 ft 98 kts 183°
2026-04-16 11:19 51.85785 7.57766 907 ft 99 kts 171°
2026-04-16 11:20 51.85091 7.58014 792 ft 104 kts 171°
2026-04-16 11:20 51.84412 7.58379 699 ft 102 kts 160°
2026-04-16 11:20 51.83825 7.58905 832 ft 91 kts 154°
2026-04-16 11:20 51.83327 7.59481 959 ft 87 kts 144°
2026-04-16 11:21 51.82852 7.60184 906 ft 99 kts 142°
2026-04-16 11:21 51.82302 7.60888 840 ft 101 kts 149°
2026-04-16 11:21 51.81742 7.61487 849 ft 98 kts 148°
2026-04-16 11:21 51.81212 7.62156 897 ft 96 kts 144°
2026-04-16 11:22 51.80648 7.62761 875 ft 100 kts 158°
2026-04-16 11:22 51.80021 7.63250 774 ft 101 kts 163°
2026-04-16 11:22 51.79360 7.63611 685 ft 97 kts 169°
2026-04-16 11:22 51.78728 7.63853 640 ft 91 kts 178°
2026-04-16 11:23 51.78122 7.63951 668 ft 85 kts 180°
2026-04-16 11:23 51.77557 7.63940 669 ft 85 kts 192°
2026-04-16 11:23 51.76971 7.64030 702 ft 86 kts 173°
2026-04-16 11:23 51.76388 7.64205 686 ft 85 kts 175°
2026-04-16 11:24 51.75800 7.64392 670 ft 82 kts 175°
2026-04-16 11:24 51.75263 7.64513 800 ft 76 kts 180°
2026-04-16 11:24 51.74738 7.64666 842 ft 77 kts 166°
2026-04-16 11:24 51.74234 7.65059 836 ft 82 kts 164°
2026-04-16 11:25 51.73739 7.65320 967 ft 77 kts 167°
2026-04-16 11:25 51.73215 7.65483 1112 ft 75 kts 181°
2026-04-16 11:25 51.72714 7.65479 1268 ft 72 kts 186°
2026-04-16 11:25 51.72174 7.65473 1354 ft 81 kts 180°
2026-04-16 11:26 51.71600 7.65633 1402 ft 88 kts 171°
2026-04-16 11:26 51.70994 7.65928 1425 ft 98 kts 165°
2026-04-16 11:26 51.70346 7.66299 1382 ft 99 kts 163°
2026-04-16 11:26 51.69728 7.66664 1396 ft 99 kts 162°
2026-04-16 11:27 51.69105 7.67127 1401 ft 99 kts 162°
2026-04-16 11:27 51.68458 7.67509 1427 ft 98 kts 165°
2026-04-16 11:27 51.67813 7.67847 1421 ft 97 kts 168°
2026-04-16 11:27 51.67162 7.68123 1378 ft 98 kts 172°
2026-04-16 11:28 51.66496 7.68276 1355 ft 96 kts 177°
2026-04-16 11:28 51.65838 7.68394 1348 ft 92 kts 178°
2026-04-16 11:28 51.65235 7.68442 1444 ft 88 kts 182°
2026-04-16 11:28 51.64616 7.68511 1533 ft 90 kts 182°
2026-04-16 11:29 51.64016 7.68517 1597 ft 83 kts 185°
2026-04-16 11:29 51.63455 7.68369 1628 ft 87 kts 207°
2026-04-16 11:29 51.62896 7.67936 1702 ft 94 kts 209°
2026-04-16 11:29 51.62315 7.67452 1857 ft 92 kts 213°
2026-04-16 11:30 51.61778 7.66887 1976 ft 92 kts 217°
2026-04-16 11:30 51.61290 7.66321 2179 ft 88 kts 219°
2026-04-16 11:30 51.60815 7.65751 2401 ft 83 kts 221°
2026-04-16 11:30 51.60356 7.65167 2546 ft 92 kts 220°
2026-04-16 11:31 51.59771 7.64646 2557 ft 101 kts 200°
2026-04-16 11:31 51.59085 7.64563 2474 ft 101 kts 180°
2026-04-16 11:31 51.58377 7.64629 2373 ft 103 kts 181°
2026-04-16 11:31 51.57667 7.64697 2412 ft 102 kts 181°
2026-04-16 11:32 51.56966 7.64775 2296 ft 106 kts 181°
2026-04-16 11:32 51.56242 7.64836 2292 ft 100 kts 182°
2026-04-16 11:32 51.55497 7.64858 2040 ft 105 kts 185°
2026-04-16 11:32 51.54955 7.64876 1923 ft 68 kts 183°
2026-04-16 11:33 51.54498 7.64856 1766 ft 68 kts 190°
2026-04-16 11:33 51.53981 7.64771 1452 ft 80 kts 192°
2026-04-16 11:33 51.53448 7.64599 1200 ft 75 kts 199°
2026-04-16 11:33 51.53032 7.64193 963 ft 65 kts 221°
2026-04-16 11:34 51.52738 7.63710 764 ft 61 kts 231°
2026-04-16 11:34 51.52519 7.63166 642 ft 53 kts 239°
2026-04-16 11:34 51.52353 7.62687 528 ft 49 kts 236°
2026-04-16 11:34 51.52172 7.62184 451 ft 58 kts 237°
2026-04-16 11:35 51.51961 7.61585 453 ft 56 kts 237°
2026-04-16 11:35 51.51773 7.61011 631 ft 59 kts 239°
2026-04-16 11:35 51.51592 7.60444 831 ft 59 kts 238°
2026-04-16 11:35 51.51268 7.60083 1027 ft 64 kts 186°
2026-04-16 11:36 51.50815 7.60349 1181 ft 78 kts 154°
2026-04-16 11:36 51.50421 7.60965 1456 ft 82 kts 117°
2026-04-16 11:36 51.50434 7.61898 1613 ft 93 kts 68°
2026-04-16 11:36 51.50759 7.62860 1663 ft 101 kts 59°
2026-04-16 11:37 51.51113 7.63856 1724 ft 104 kts 62°
2026-04-16 11:37 51.51547 7.64556 1659 ft 86 kts 13°
2026-04-16 11:37 51.52108 7.64375 1370 ft 86 kts 329°
2026-04-16 11:37 51.52560 7.63736 861 ft 95 kts 286°
2026-04-16 11:38 51.52391 7.62805 499 ft 86 kts 239°
2026-04-16 11:38 51.52139 7.62090 411 ft 71 kts 237°
2026-04-16 11:38 51.51919 7.61413 580 ft 64 kts 242°
2026-04-16 11:38 51.51952 7.60694 784 ft 73 kts 291°
2026-04-16 11:39 51.52311 7.60161 1037 ft 78 kts 330°
2026-04-16 11:39 51.52846 7.60039 1295 ft 85 kts 30°
2026-04-16 11:39 51.53146 7.60943 1332 ft 99 kts 68°
2026-04-16 11:39 51.53430 7.61993 1412 ft 104 kts 65°
2026-04-16 11:40 51.53336 7.62989 1269 ft 95 kts 146°
2026-04-16 11:40 51.52701 7.63042 905 ft 97 kts 205°
2026-04-16 11:40 51.52221 7.62329 476 ft 95 kts 238°
2026-04-16 11:40 51.51949 7.61536 505 ft 74 kts 239°
2026-04-16 11:41 51.51756 7.60815 732 ft 71 kts 262°
2026-04-16 11:41 51.52138 7.60364 864 ft 90 kts 13°
2026-04-16 11:41 51.52578 7.61068 1003 ft 87 kts 60°
2026-04-16 11:41 51.52811 7.61843 995 ft 71 kts 72°
2026-04-16 11:42 51.52917 7.62545 965 ft 67 kts 61°
2026-04-16 11:42 51.53060 7.63271 1107 ft 69 kts 93°
2026-04-16 11:42 51.52783 7.63640 967 ft 63 kts 215°
2026-04-16 11:42 51.52504 7.63104 693 ft 60 kts 236°
2026-04-16 11:43 51.52307 7.62562 515 ft 52 kts 237°
2026-04-16 11:43 51.52112 7.62014 412 ft 60 kts 237°
2026-04-16 11:43 51.51936 7.61519 406 ft 38 kts 242°
2026-04-16 11:43 51.51828 7.61210 412 ft 32 kts 240°
2026-04-16 11:44 51.51725 7.60917 416 ft 33 kts 240°
2026-04-16 11:44 51.51600 7.60612 414 ft 26 kts 194°
2026-04-16 11:44 51.51531 7.60745 422 ft 16 kts 73°
2026-04-16 11:44 51.51572 7.60985 430 ft 22 kts 83°
2026-04-16 11:45 51.51504 7.61039 439 ft 12 kts 236°
2026-04-16 11:45 51.51420 7.60803 445 ft 36 kts 241°
2026-04-16 11:45 51.51309 7.60486 455 ft 29 kts 240°
2026-04-16 11:45 51.51217 7.60228 459 ft 24 kts 240°
2026-04-16 11:46 51.51151 7.60186 462 ft 15 kts 103°
2026-04-16 11:46 51.51213 7.60361 464 ft 12 kts 72°
2026-04-16 11:46 51.51239 7.60496 467 ft 9 kts 108°
2026-04-16 11:46 51.51236 7.60510 468 ft 0 kts 103°